Tracking 19170 objects as of 22-May-2018
HD Live streaming from Space Station
objects crossing your sky now

COSMOS 482 DESCENT CRAFT

Track COSMOS 482 DESCENT CRAFT now!
10-day predictions
COSMOS 482 DESCENT CRAFT is classified as:


NORAD ID: 6073
Int'l Code: 1972-023E
Perigee: 208.8 km
Apogee: 2,497.7 km
Inclination: 52.1 °
Period: 112.6 minutes
Semi major axis: 7724 km
RCS: 0.7153 m2 (medium)
Launch date: March 31, 1972
Source: Commonwealth of Independent States (former USSR) (CIS)
Launch site: TYURATAM MISSILE AND SPACE COMPLEX (TTMTR)
aabbcc
Your satellite tracking list
Your tracking list is empty




NASA's NSSDC Master Catalog

Two Line Element Set (TLE):
1 06073U 72023E   18141.40930085  .00023869  55745-5  10947-3 0  9997
2 06073  52.0547  81.6109 1481643  11.4270 351.6697 12.78840402404087
Source of the keplerian elements: AFSPC